DW9210 Weather Reports


Display with metric or nautical units.
time (UTC)temp
F
wind
direction
speed
MPH
gust
MPH
rain 1hr
in
rain 24hr
in
rain mn
in
humidity
%
barometer
mb
20260902051503 71 0 0.0 0.0 0.00 0.00 0.00 96 1015.8
20260902051003 71 0 0.0 0.0 0.00 0.00 0.00 96 1015.8
20260902050503 71 0 0.0 0.0 0.00 0.00 0.00 95 1015.8
20260902050005 71 0 0.0 0.0 0.00 0.00 0.00 95 1015.7
20260902045503 71 0 0.0 0.0 0.00 0.00 0.00 95 1015.7
20260902045003 72 0 0.0 0.0 0.00 0.00 0.00 95 1015.7
20260902044503 72 0 0.0 0.0 0.00 0.00 0.00 95 1015.6
20260902044003 72 0 0.0 0.0 0.00 0.00 0.00 96 1015.7
20260902043503 72 0 0.0 0.0 0.00 0.00 0.00 96 1015.7
20260902043003 72 0 0.0 0.0 0.00 0.00 0.00 95 1015.6
20260902042524 72 0 0.0 0.0 0.00 0.00 0.00 95 1015.6
20260902042003 72 0 0.0 0.0 0.00 0.00 0.00 95 1015.6
20260902041503 72 0 0.0 0.0 0.00 0.00 0.00 95 1015.7
20260902041003 72 0 0.0 0.0 0.00 0.00 0.00 95 1015.7
20260902040503 72 0 0.0 0.0 0.00 0.00 0.00 95 1015.7
20260902040003 72 0 0.0 0.0 0.00 0.00 0.00 95 1015.6
20260902035503 72 0 0.0 0.0 0.00 0.00 0.00 95 1015.6
20260902035003 73 0 0.0 0.0 0.00 0.00 0.00 95 1015.6
20260902034524 73 0 0.0 0.0 0.00 0.00 0.00 95 1015.6
20260902034027 73 0 0.0 0.0 0.00 0.00 0.00 95 1015.7
20260902033503 73 0 0.0 0.0 0.00 0.00 0.00 95 1015.7
20260902033003 73 0 0.0 0.0 0.00 0.00 0.00 95 1015.7
20260902032503 73 0 0.0 0.0 0.00 0.00 0.00 94 1015.7
20260902032003 73 0 0.0 0.0 0.00 0.00 0.00 94 1015.7
20260902031503 73 0 0.0 0.0 0.00 0.00 0.00 95 1015.7
20260902031024 73 0 0.0 0.0 0.00 0.00 0.00 94 1015.7
20260902030503 73 0 0.0 0.0 0.00 0.00 0.00 94 1015.7
20260902030003 73 0 0.0 0.0 0.00 0.00 0.00 94 1015.7
20260902025524 74 0 0.0 0.0 0.00 0.00 0.00 94 1015.6
20260902025003 74 0 0.0 0.0 0.00 0.00 0.00 94 1015.7
20260902024503 74 0 0.0 0.0 0.00 0.00 0.00 93 1015.7
20260902024003 74 0 0.0 0.0 0.00 0.00 0.00 93 1015.8
20260902023503 74 0 0.0 0.0 0.00 0.00 0.00 94 1015.7
20260902023003 74 0 0.0 0.0 0.00 0.00 0.00 94 1015.6
20260902022524 75 0 0.0 0.0 0.00 0.00 0.00 93 1015.6
20260902022003 75 0 0.0 0.0 0.00 0.00 0.00 92 1015.7
20260902021524 75 0 0.0 0.0 0.00 0.00 0.00 93 1015.6
20260902021003 75 0 0.0 0.0 0.00 0.00 0.00 93 1015.6
20260902020503 75 0 0.0 0.0 0.00 0.00 0.00 92 1015.6
20260902020024 76 0 0.0 0.0 0.00 0.00 0.00 92 1015.5
20260902015503 76 0 0.0 0.0 0.00 0.00 0.00 92 1015.5
20260902015024 76 0 0.0 0.0 0.00 0.00 0.00 91 1015.6
20260902014503 76 0 0.0 0.0 0.00 0.00 0.00 91 1015.5
20260902014003 76 0 0.0 0.0 0.00 0.00 0.00 91 1015.5
20260902013503 77 0 0.0 0.0 0.00 0.00 0.00 90 1015.5
20260902013024 77 0 0.0 0.0 0.00 0.00 0.00 89 1015.5
20260902012503 77 0 0.0 0.0 0.00 0.00 0.00 89 1015.4
20260902012024 78 0 0.0 0.0 0.00 0.00 0.00 89 1015.4
20260902011503 78 0 0.0 0.0 0.00 0.00 0.00 87 1015.3
20260902011024 78 0 0.0 0.0 0.00 0.00 0.00 85 1015.3
20260902010503 78 0 0.0 0.0 0.00 0.00 0.00 85 1015.2
20260902010003 79 0 0.0 0.0 0.00 0.00 0.00 85 1015.2
20260902005503 79 0 0.0 0.0 0.00 0.00 0.00 83 1015.1
20260902005024 80 0 0.0 0.0 0.00 0.00 0.00 82 1015.1
20260902004503 80 0 0.0 0.0 0.00 0.00 0.00 82 1015.1
20260902004003 81 0 0.0 0.0 0.00 0.00 0.00 81 1015.0
20260902003503 81 0 0.0 0.0 0.00 0.00 0.00 81 1015.0
20260902003003 82 0 0.0 0.0 0.00 0.00 0.00 80 1014.9
20260902002524 82 0 0.0 0.0 0.00 0.00 0.00 79 1015.0
20260902002003 83 0 0.0 0.0 0.00 0.00 0.00 79 1015.0
20260902001524 83 231 0.0 1.0 0.00 0.00 0.00 76 1015.0
20260902001003 84 231 0.0 1.0 0.00 0.00 0.00 76 1015.1
20260902000503 85 0 0.0 0.0 0.00 0.00 0.00 75 1015.1
20260902000003 85 0 0.0 0.0 0.00 0.00 0.00 74 1015.1
20260901235503 86 229 0.0 1.0 0.00 0.00 0.00 73 1015.1
20260901235024 87 236 1.0 2.0 0.00 0.00 0.00 73 1015.2
20260901234503 88 240 0.0 2.0 0.00 0.00 0.00 72 1015.2
20260901234003 89 240 0.0 1.0 0.00 0.00 0.00 70 1015.3
20260901233503 89 240 0.0 2.0 0.00 0.00 0.00 69 1015.2
20260901233003 90 241 0.0 2.0 0.00 0.00 0.00 64 1015.3
20260901232503 91 241 0.0 1.0 0.00 0.00 0.00 63 1015.3
20260901232003 92 241 0.0 2.0 0.00 0.00 0.00 63 1015.4
20260901231503 92 241 1.0 2.0 0.00 0.00 0.00 59 1015.3
20260901231024 93 241 1.0 2.0 0.00 0.00 0.00 59 1015.4
20260901230503 93 254 1.0 2.0 0.00 0.00 0.00 59 1015.3
20260901230024 93 257 1.0 4.0 0.00 0.00 0.00 60 1015.4
20260901225503 93 255 2.0 5.0 0.00 0.00 0.00 57 1015.3
20260901225003 93 262 2.0 5.0 0.00 0.00 0.00 58 1015.4
20260901224503 93 258 2.0 5.0 0.00 0.00 0.00 58 1015.3
20260901224003 93 259 2.0 5.0 0.00 0.00 0.00 58 1015.4
20260901223503 93 266 2.0 4.0 0.00 0.00 0.00 58 1015.4
20260901223003 93 252 2.0 4.0 0.00 0.00 0.00 58 1015.4
20260901222503 93 243 1.0 4.0 0.00 0.00 0.00 58 1015.4
20260901222003 92 242 0.0 2.0 0.00 0.00 0.00 57 1015.4
20260901221503 92 243 0.0 3.0 0.00 0.00 0.00 63 1015.3
20260901221003 93 267 1.0 4.0 0.00 0.00 0.00 60 1015.3
20260901220503 93 271 2.0 5.0 0.00 0.00 0.00 56 1015.3
20260901220003 94 264 3.0 7.0 0.00 0.00 0.00 53 1015.2
20260901215503 95 252 2.0 7.0 0.00 0.00 0.00 54 1015.2
20260901215003 94 221 1.0 3.0 0.00 0.00 0.00 54 1015.2
20260901214503 94 220 0.0 2.0 0.00 0.00 0.00 54 1015.2
20260901214024 94 244 1.0 4.0 0.00 0.00 0.00 60 1015.2
20260901213503 94 247 2.0 4.0 0.00 0.00 0.00 56 1015.2
20260901213003 94 245 2.0 5.0 0.00 0.00 0.00 54 1015.2
20260901212503 94 234 1.0 5.0 0.00 0.00 0.00 52 1015.2
20260901212024 94 221 1.0 4.0 0.00 0.00 0.00 55 1015.3
20260901211503 94 230 1.0 4.0 0.00 0.00 0.00 56 1015.3
20260901211003 93 243 2.0 4.0 0.00 0.00 0.00 53 1015.3
20260901210524 93 251 2.0 7.0 0.00 0.00 0.00 54 1015.3
20260901210003 94 260 3.0 7.0 0.00 0.00 0.00 54 1015.3
20260901205524 94 270 4.0 8.0 0.00 0.00 0.00 54 1015.3
20260901205003 95 265 4.0 8.0 0.00 0.00 0.00 53 1015.4
20260901204503 95 256 3.0 7.0 0.00 0.00 0.00 52 1015.4
20260901204003 95 248 2.0 6.0 0.00 0.00 0.00 52 1015.5
20260901203524 95 243 2.0 6.0 0.00 0.00 0.00 54 1015.5
20260901203003 95 238 2.0 7.0 0.00 0.00 0.00 52 1015.6
20260901202503 94 238 2.0 7.0 0.00 0.00 0.00 54 1015.6
20260901202003 94 253 4.0 8.0 0.00 0.00 0.00 53 1015.6
20260901201503 94 260 5.0 9.0 0.00 0.00 0.00 52 1015.7
20260901201003 94 257 5.0 9.0 0.00 0.00 0.00 54 1015.7
20260901200503 93 253 3.0 9.0 0.00 0.00 0.00 55 1015.8
20260901200003 93 268 1.0 5.0 0.00 0.00 0.00 57 1015.7
20260901195503 93 266 3.0 8.0 0.00 0.00 0.00 56 1015.9
20260901195024 94 253 3.0 8.0 0.00 0.00 0.00 57 1015.9
20260901194503 94 240 3.0 6.0 0.00 0.00 0.00 51 1015.9
20260901194003 94 240 2.0 6.0 0.00 0.00 0.00 53 1016.0
20260901193503 94 262 3.0 10.0 0.00 0.00 0.00 53 1016.0
20260901193003 94 261 4.0 10.0 0.00 0.00 0.00 56 1016.0
20260901192503 94 243 3.0 9.0 0.00 0.00 0.00 54 1016.1
20260901192003 93 254 3.0 9.0 0.00 0.00 0.00 53 1016.2
20260901191503 93 288 2.0 4.0 0.00 0.00 0.00 59 1016.2
20260901191024 93 267 2.0 5.0 0.00 0.00 0.00 56 1016.3
20260901190524 93 246 2.0 7.0 0.00 0.00 0.00 57 1016.3
20260901190003 94 242 2.0 8.0 0.00 0.00 0.00 56 1016.4
20260901185503 93 253 3.0 8.0 0.00 0.00 0.00 56 1016.5
20260901185024 93 271 3.0 8.0 0.00 0.00 0.00 55 1016.5
20260901184503 93 241 3.0 8.0 0.00 0.00 0.00 55 1016.5
20260901184003 93 232 2.0 6.0 0.00 0.00 0.00 55 1016.5
20260901183524 93 273 3.0 7.0 0.00 0.00 0.00 55 1016.7
20260901183003 93 274 4.0 9.0 0.00 0.00 0.00 58 1016.7
20260901182503 93 274 3.0 9.0 0.00 0.00 0.00 59 1016.8
20260901182003 93 273 3.0 6.0 0.00 0.00 0.00 62 1016.8
20260901181524 93 267 3.0 8.0 0.00 0.00 0.00 59 1016.8
20260901181003 93 268 3.0 9.0 0.00 0.00 0.00 59 1016.8
20260901180524 92 261 3.0 9.0 0.00 0.00 0.00 59 1016.9
20260901180003 92 263 4.0 9.0 0.00 0.00 0.00 58 1016.9
20260901175524 92 264 2.0 9.0 0.00 0.00 0.00 60 1016.9
20260901175003 92 240 2.0 8.0 0.00 0.00 0.00 60 1016.9
20260901174503 92 245 3.0 8.0 0.00 0.00 0.00 58 1017.0
20260901174003 92 245 4.0 9.0 0.00 0.00 0.00 59 1017.0
20260901173503 92 252 4.0 9.0 0.00 0.00 0.00 58 1017.1
20260901173003 92 262 3.0 9.0 0.00 0.00 0.00 59 1017.1
20260901172503 92 270 3.0 8.0 0.00 0.00 0.00 64 1017.1
20260901172003 91 270 3.0 8.0 0.00 0.00 0.00 63 1017.1
20260901171503 91 271 4.0 8.0 0.00 0.00 0.00 60 1017.3
20260901171003 91 284 4.0 8.0 0.00 0.00 0.00 62 1017.2
20260901170503 91 289 4.0 9.0 0.00 0.00 0.00 67 1017.2
20260901170003 91 275 4.0 9.0 0.00 0.00 0.00 66 1017.3
20260901165503 91 253 3.0 9.0 0.00 0.00 0.00 62 1017.3
20260901165003 91 252 3.0 9.0 0.00 0.00 0.00 60 1017.3
20260901164524 91 261 4.0 12.0 0.00 0.00 0.00 64 1017.3
20260901164003 91 260 4.0 12.0 0.00 0.00 0.00 69 1017.3
20260901163503 90 252 3.0 10.0 0.00 0.00 0.00 63 1017.3
20260901163024 90 245 3.0 10.0 0.00 0.00 0.00 63 1017.3
20260901162503 90 253 4.0 9.0 0.00 0.00 0.00 63 1017.3
20260901162024 89 258 5.0 13.0 0.00 0.00 0.00 63 1017.3
20260901161524 89 261 5.0 13.0 0.00 0.00 0.00 64 1017.4
20260901161003 89 267 5.0 12.0 0.00 0.00 0.00 65 1017.4
20260901160503 90 269 4.0 9.0 0.00 0.00 0.00 64 1017.5
20260901160024 89 271 5.0 9.0 0.00 0.00 0.00 69 1017.5
20260901155524 89 263 5.0 10.0 0.00 0.00 0.00 65 1017.6
20260901155003 88 253 4.0 10.0 0.00 0.00 0.00 66 1017.6
20260901154503 89 259 4.0 10.0 0.00 0.00 0.00 65 1017.7
20260901154003 88 268 4.0 8.0 0.00 0.00 0.00 65 1017.6
20260901153503 88 266 4.0 9.0 0.00 0.00 0.00 69 1017.7
20260901153003 88 261 5.0 9.0 0.00 0.00 0.00 66 1017.7
20260901152524 88 263 5.0 10.0 0.00 0.00 0.00 65 1017.8
20260901152003 88 265 5.0 10.0 0.00 0.00 0.00 67 1017.8
20260901151503 88 267 4.0 9.0 0.00 0.00 0.00 66 1017.7
20260901151003 88 269 4.0 8.0 0.00 0.00 0.00 71 1017.8
20260901150503 88 264 5.0 10.0 0.00 0.00 0.00 67 1017.7
20260901150003 87 262 4.0 10.0 0.00 0.00 0.00 68 1017.7
20260901145503 87 256 3.0 8.0 0.00 0.00 0.00 67 1017.8
20260901145024 87 246 3.0 8.0 0.00 0.00 0.00 70 1017.8
20260901144524 87 242 3.0 8.0 0.00 0.00 0.00 70 1017.6
20260901144003 86 249 2.0 7.0 0.00 0.00 0.00 75 1017.6
20260901143524 86 258 1.0 7.0 0.00 0.00 0.00 70 1017.6
20260901143003 86 0 0.0 0.0 0.00 0.00 0.00 72 1017.6
20260901142503 85 0 0.0 0.0 0.00 0.00 0.00 73 1017.7
20260901142024 85 0 0.0 0.0 0.00 0.00 0.00 76 1017.7
20260901141524 84 0 0.0 0.0 0.00 0.00 0.00 77 1017.7
20260901141003 84 0 0.0 0.0 0.00 0.00 0.00 78 1017.7
20260901140503 84 0 0.0 0.0 0.00 0.00 0.00 77 1017.8
20260901140003 83 0 0.0 0.0 0.00 0.00 0.00 79 1017.8
20260901135503 82 0 0.0 0.0 0.00 0.00 0.00 81 1017.8
20260901135003 82 0 0.0 0.0 0.00 0.00 0.00 80 1017.8
20260901134503 82 0 0.0 0.0 0.00 0.00 0.00 80 1017.8
20260901134003 81 0 0.0 0.0 0.00 0.00 0.00 82 1017.9
20260901133503 81 0 0.0 0.0 0.00 0.00 0.00 82 1017.9
20260901133003 81 0 0.0 0.0 0.00 0.00 0.00 81 1017.9
20260901132503 80 0 0.0 0.0 0.00 0.00 0.00 83 1017.8
20260901132003 80 0 0.0 0.0 0.00 0.00 0.00 84 1017.8
20260901131503 79 0 0.0 0.0 0.00 0.00 0.00 85 1017.8
20260901131003 79 0 0.0 0.0 0.00 0.00 0.00 85 1017.8
20260901130503 78 0 0.0 0.0 0.00 0.00 0.00 86 1017.8
20260901130024 78 0 0.0 0.0 0.00 0.00 0.00 88 1017.9
20260901125503 77 0 0.0 0.0 0.00 0.00 0.00 88 1018.0
20260901125003 76 0 0.0 0.0 0.00 0.00 0.00 91 1018.1
20260901124524 76 0 0.0 0.0 0.00 0.00 0.00 92 1018.1
20260901124003 75 0 0.0 0.0 0.00 0.00 0.00 94 1018.2
20260901123503 74 0 0.0 0.0 0.00 0.00 0.00 94 1018.2
20260901123024 73 0 0.0 0.0 0.00 0.00 0.00 95 1018.2
20260901122503 72 0 0.0 0.0 0.00 0.00 0.00 96 1018.1
20260901122003 72 0 0.0 0.0 0.00 0.00 0.00 98 1018.1
20260901121524 72 0 0.0 0.0 0.00 0.00 0.00 98 1018.2
20260901121003 70 0 0.0 0.0 0.00 0.00 0.00 98 1018.1
20260901120503 70 0 0.0 0.0 0.00 0.00 0.00 98 1017.9
20260901120003 69 0 0.0 0.0 0.00 0.00 0.00 98 1017.9
20260901115503 68 0 0.0 0.0 0.00 0.00 0.00 98 1017.8
20260901115003 68 0 0.0 0.0 0.00 0.00 0.00 98 1017.7
20260901114503 67 0 0.0 0.0 0.00 0.00 0.00 98 1017.7
20260901114003 67 0 0.0 0.0 0.00 0.00 0.00 97 1017.6
20260901113503 67 0 0.0 0.0 0.00 0.00 0.00 97 1017.5
20260901113003 66 0 0.0 0.0 0.00 0.00 0.00 97 1017.5
20260901112524 66 0 0.0 0.0 0.00 0.00 0.00 97 1017.4
20260901112003 66 0 0.0 0.0 0.00 0.00 0.00 97 1017.3
20260901111503 66 0 0.0 0.0 0.00 0.00 0.00 97 1017.3
20260901111024 66 0 0.0 0.0 0.00 0.00 0.00 97 1017.3
20260901110503 66 0 0.0 0.0 0.00 0.00 0.00 97 1017.2
20260901110003 66 0 0.0 0.0 0.00 0.00 0.00 97 1017.1
20260901105503 67 0 0.0 0.0 0.00 0.00 0.00 97 1017.1
20260901105003 67 0 0.0 0.0 0.00 0.00 0.00 97 1017.1
20260901104503 67 0 0.0 0.0 0.00 0.00 0.00 97 1017.0
20260901104003 66 0 0.0 0.0 0.00 0.00 0.00 97 1016.9
20260901103503 66 0 0.0 0.0 0.00 0.00 0.00 97 1016.9
20260901103003 66 0 0.0 0.0 0.00 0.00 0.00 96 1016.8
20260901102503 66 0 0.0 0.0 0.00 0.00 0.00 96 1016.8
20260901102003 67 0 0.0 0.0 0.00 0.00 0.00 96 1016.8
20260901101503 67 0 0.0 0.0 0.00 0.00 0.00 97 1016.7
20260901101003 67 0 0.0 0.0 0.00 0.00 0.00 97 1016.6
20260901100503 67 0 0.0 0.0 0.00 0.00 0.00 96 1016.6
20260901100003 68 0 0.0 0.0 0.00 0.00 0.00 97 1016.6
20260901095503 68 0 0.0 0.0 0.00 0.00 0.00 97 1016.6
20260901095003 67 0 0.0 0.0 0.00 0.00 0.00 97 1016.6
20260901094524 67 0 0.0 0.0 0.00 0.00 0.00 97 1016.6
20260901094003 67 0 0.0 0.0 0.00 0.00 0.00 96 1016.4
20260901093524 68 0 0.0 0.0 0.00 0.00 0.00 97 1016.4
20260901093003 68 0 0.0 0.0 0.00 0.00 0.00 97 1016.3
20260901092503 68 0 0.0 0.0 0.00 0.00 0.00 97 1016.2
20260901092003 67 0 0.0 0.0 0.00 0.00 0.00 96 1016.2
20260901091503 68 0 0.0 0.0 0.00 0.00 0.00 96 1016.1
20260901091003 68 0 0.0 0.0 0.00 0.00 0.00 97 1016.1
20260901090503 68 0 0.0 0.0 0.00 0.00 0.00 97 1015.9
20260901090003 68 0 0.0 0.0 0.00 0.00 0.00 97 1015.8
20260901085524 68 0 0.0 0.0 0.00 0.00 0.00 97 1015.8
20260901085003 68 0 0.0 0.0 0.00 0.00 0.00 97 1015.7
20260901084503 67 0 0.0 0.0 0.00 0.00 0.00 97 1015.7
20260901084003 67 0 0.0 0.0 0.00 0.00 0.00 96 1015.6
20260901083503 67 0 0.0 0.0 0.00 0.00 0.00 96 1015.7
20260901083003 67 0 0.0 0.0 0.00 0.00 0.00 96 1015.6
20260901082524 68 0 0.0 0.0 0.00 0.00 0.00 96 1015.6
20260901082003 68 0 0.0 0.0 0.00 0.00 0.00 96 1015.5
20260901081503 68 0 0.0 0.0 0.00 0.00 0.00 96 1015.4
20260901081003 68 0 0.0 0.0 0.00 0.00 0.00 96 1015.4
20260901080503 68 0 0.0 0.0 0.00 0.00 0.00 97 1015.4
20260901080024 68 0 0.0 0.0 0.00 0.00 0.00 97 1015.4
20260901075524 68 0 0.0 0.0 0.00 0.00 0.00 97 1015.4
20260901075003 68 0 0.0 0.0 0.00 0.00 0.00 97 1015.4
20260901074524 68 0 0.0 0.0 0.00 0.00 0.00 96 1015.4
20260901074003 68 0 0.0 0.0 0.00 0.00 0.00 96 1015.4
20260901073503 68 0 0.0 0.0 0.00 0.00 0.00 96 1015.4
20260901073003 68 0 0.0 0.0 0.00 0.00 0.00 96 1015.6
20260901072503 68 0 0.0 0.0 0.00 0.00 0.00 96 1015.5
20260901072003 68 0 0.0 0.0 0.00 0.00 0.00 96 1015.5
20260901071524 68 0 0.0 0.0 0.00 0.00 0.00 96 1015.6
20260901071024 68 0 0.0 0.0 0.00 0.00 0.00 96 1015.6
20260901070503 68 0 0.0 0.0 0.00 0.00 0.00 96 1015.7
20260901070003 68 0 0.0 0.0 0.00 0.00 0.00 96 1015.8
20260901065524 68 0 0.0 0.0 0.00 0.00 0.00 96 1015.7
20260901065003 68 0 0.0 0.0 0.00 0.00 0.00 95 1015.8
20260901064503 69 0 0.0 0.0 0.00 0.00 0.00 95 1015.8
20260901064003 69 0 0.0 0.0 0.00 0.00 0.00 96 1015.8
20260901063503 69 0 0.0 0.0 0.00 0.00 0.00 96 1015.9
20260901063003 69 0 0.0 0.0 0.00 0.00 0.00 96 1016.0
20260901062503 69 0 0.0 0.0 0.00 0.00 0.00 96 1016.1
20260901062024 69 0 0.0 0.0 0.00 0.00 0.00 96 1016.2
20260901061503 69 0 0.0 0.0 0.00 0.00 0.00 96 1016.2
20260901061003 69 0 0.0 0.0 0.00 0.00 0.00 96 1016.3
20260901060503 69 0 0.0 0.0 0.00 0.00 0.00 96 1016.3
20260901060003 69 0 0.0 0.0 0.00 0.00 0.00 96 1016.3
20260901055524 69 0 0.0 0.0 0.00 0.00 0.00 96 1016.4
20260901055003 69 0 0.0 0.0 0.00 0.00 0.00 95 1016.4
20260901054503 69 0 0.0 0.0 0.00 0.00 0.00 95 1016.4
20260901054003 70 0 0.0 0.0 0.00 0.00 0.00 95 1016.6
20260901053524 70 0 0.0 0.0 0.00 0.00 0.00 96 1016.5
20260901053003 70 0 0.0 0.0 0.00 0.00 0.00 95 1016.5
20260901052503 70 0 0.0 0.0 0.00 0.00 0.00 95 1016.7
20260901052003 70 0 0.0 0.0 0.00 0.00 0.00 95 1016.6